Regional Weather Roundup
Issued by NWS

Home | Current Version | Previous Version | Graphics & Text | Print | Product List | Glossary On
Versions: 1 2 3 4 5 6 7 8 9 10 11 12 13 14 15 16 17 18 19 20 21 22 23 24 25 26 27 28 29 30 31 32 33 34 35 36 37 38 39 40 41 42 43 44 45 46 47 48 49 50
000
ASUS43 KOAX 211310
RWRNE

WEATHER ROUNDUP FOR NEBRASKA
NATIONAL WEATHER SERVICE OMAHA NE
800 AM CDT SAT APR 21 2018

NOTES: SATELLITE DATA IS BEING USED TO AUGMENT CLOUD COVER ABOVE
       12000 FEET.
       "FAIR" INDICATES FEW OR NO CLOUDS BELOW 12,000 FEET WITH NO
       SIGNIFICANT WEATHER AND/OR OBSTRUCTIONS TO VISIBILITY.


NEZ001>004-019>022-054>056-211400-
NEBRASKA PANHANDLE

CITY           SKY/WX    TMP DP  RH WIND       PRES   REMARKS
SCOTTSBLUFF    CLOUDY    34  32  92 SE6       30.20S HAZE    WCI  29
ALLIANCE       LGT SNOW  32  32 100 SE3       30.21R FOG
CHADRON        CLOUDY    39  35  86 CALM      30.22R
GORDON         CLOUDY    38  36  94 SE7       30.23R WCI  32
KIMBALL        LGT SNOW  32  32 100 E3        30.18R
SIDNEY         LGT SNOW  33  32  96 E6        30.19S VSB 1   WCI  28
$$

NEZ057>060-069>072-079>082-211400-
SOUTHWEST NEBRASKA

CITY           SKY/WX    TMP DP  RH WIND       PRES   REMARKS
NORTH PLATTE   CLOUDY    39  36  89 E8        30.24R WCI  33
IMPERIAL       CLOUDY    38  38 100 E9        30.20S WCI  31
LEXINGTON      CLOUDY    40  38  93 NE6       30.24R
MCCOOK         CLOUDY    40  40 100 NE8       30.21R FOG     WCI  34
OGALLALA       LGT RAIN  37  36  95 E7        30.23R WCI  32
$$

NEZ005>010-023>029-035>040-094-211400-
NORTH CENTRAL NEBRASKA

CITY           SKY/WX    TMP DP  RH WIND       PRES   REMARKS
VALENTINE      LGT RAIN  41  38  89 SE7       30.29R
AINSWORTH      DRIZZLE   38  38  99 S3        30.29S
BROKEN BOW     LGT RAIN  40  37  89 N5        30.24S
O`NEILL        CLOUDY    42  40  89 N6        30.31R
ORD            CLOUDY    40  39  97 N3        30.26S FOG
THEDFORD       LGT RAIN  38  38  97 E5        30.27R WCI  35
$$

NEZ041-046>049-061>064-073>077-083>087-211400-
SOUTH CENTRAL NEBRASKA

CITY           SKY/WX    TMP DP  RH WIND       PRES   REMARKS
GRAND ISLAND   CLOUDY    42  39  89 NE9       30.27R
AURORA         CLOUDY    42  40  93 NE7       30.27R
HASTINGS       CLOUDY    42  39  89 E12       30.23S
HEBRON         DRIZZLE   44  40  85 E5        30.24S
HOLDREGE       CLOUDY    40  39  97 NE10      30.23R WCI  34
KEARNEY        CLOUDY    40  38  93 NE10      30.24R WCI  33
YORK             N/A     41  39  93 E6        30.27R
$$

NEZ011>018-030>034-042>045-211400-
NORTHEAST NEBRASKA

CITY           SKY/WX    TMP DP  RH WIND       PRES   REMARKS
NORFOLK        CLOUDY    44  36  73 E5        30.28R
ALBION         CLOUDY    42  38  84 NE3       30.28S
BLAIR          CLOUDY    47  31  54 NE8       30.29R
COLUMBUS       CLOUDY    44  32  62 E8        30.30R
FREMONT        CLOUDY    48  32  54 E8        30.29R
TEKAMAH        CLOUDY    43  37  79 N7        30.31R
WAYNE          CLOUDY    42  40  92 NE3       30.31R
$$

NEZ050>053-065>068-078-088>093-211400-
SOUTHEAST NEBRASKA

CITY           SKY/WX    TMP DP  RH WIND       PRES   REMARKS
LINCOLN        CLOUDY    50  26  39 SE5       30.29R
OMAHA EPPLEY   CLOUDY    49  27  42 VRB6      30.30R
BEATRICE       CLOUDY    49  37  61 SE7       30.27R
FALLS CITY     CLOUDY    45  38  76 E3        30.26F
NEBRASKA CITY  RAIN      48  31  52 SE7       30.28S
PLATTSMOUTH    CLOUDY    48  26  41 E9        30.28S
$$

NEZ044-045-051>053-067-211400-
OMAHA AREA

CITY           SKY/WX    TMP DP  RH WIND       PRES   REMARKS
OMAHA EPPLEY   CLOUDY    49  27  42 VRB6      30.30R
BLAIR          CLOUDY    47  31  54 NE8       30.29R
FREMONT        CLOUDY    48  32  54 E8        30.29R
MILLARD        CLOUDY    50  29  43 E6        30.28S
OFFUTT AFB     CLOUDY    48  27  43 E10       30.28R
PLATTSMOUTH    CLOUDY    48  26  41 E9        30.28S
WAHOO          CLOUDY    47  28  47 E8        30.27S
$$




USA.gov is the U.S. government's official web portal to all federal, state and local government web resources and services.